Location: NJAA Observatory
(40.6819°N, 74.8979°W)
Time: 08:41:10
(UTC-04:00)

Daily predictions for brighter satellites

Satellite Brightness Start Highest point End
(mag) Time Altitude Azimuth Time Altitude Azimuth Time Altitude Azimuth
NOAA 12 4.4 19:42:15 10° S 19:47:33 76° WSW 19:52:51 10° NNW
Lacrosse 5 3.7 19:46:23 10° W 19:50:49 30° NNW 19:55:17 10° NNE
Cosmos 1833 Rocket 2.7 19:50:21 10° NNW 19:55:57 63° ENE 20:01:31 10° SE
GP-B 3.9 19:54:20 10° SE 19:58:13 31° E 20:02:07 10° NNE
Cosmos 2344 4.5 19:53:33 10° SW 20:01:03 56° NW 20:09:40 10° NNE
ATLAS 5 CENTAUR R/B 1.7 19:58:55 10° SSW 20:03:34 81° SE 20:08:39 10° NE
CZ-2D R/B 3.8 20:01:22 10° SE 20:04:59 39° ENE 20:08:39 10° N
Cosmos 482 Debris 4.0 20:05:16 10° NNW 20:06:49 22° NNE 20:07:44 16° ENE
Lacrosse 5 rocket 1.2 20:03:08 10° NW 20:07:05 65° NE 20:10:29 12° SE
Cosmos 1805 3.7 20:03:19 10° SSW 20:07:11 67° W 20:11:06 10° N
ALOS 2.4 20:03:00 10° S 20:07:40 82° W 20:12:22 10° NNW
Cosmos 158 Rocket 4.0 20:02:35 10° NNW 20:07:46 74° ENE 20:13:03 10° SSE
Cosmos 372 Rocket 3.9 20:03:08 10° SSW 20:08:14 84° ESE 20:13:26 10° NNE
Cosmos 2278 Rocket 4.0 20:04:45 10° SW 20:09:57 36° WNW 20:15:10 10° N
Resurs 01 Rocket 1.6 20:06:45 10° SSE 20:11:08 68° ENE 20:15:33 10° N
Cosmos 1743 Rocket 4.4 20:10:54 10° NNE 20:14:52 31° ENE 20:18:36 11° SE
Cosmos 1733 3.4 20:11:21 10° SSE 20:15:04 48° E 20:18:50 10° NNE
CZ-4C R/B 3.3 20:11:48 10° SSE 20:15:15 18° ESE 20:18:55 10° ENE
USA 186 2.0 20:16:04 22° E 20:16:36 24° ENE 20:18:28 10° NNE
Helios 1B rocket 3.1 20:15:49 10° NNE 20:19:34 33° E 20:23:18 10° SSE
Cosmos 2251 Rocket 4.3 20:14:50 10° N 20:19:43 35° ENE 20:23:30 15° ESE
Meteor 1-21 Rocket 4.4 20:14:10 10° N 20:20:04 89° W 20:25:59 10° S
Cosmos 1269 Rocket 4.3 20:15:33 10° NNW 20:20:49 71° WSW 20:26:04 10° S
BREEZE-M DEB (TANK) 4.0 20:19:07 10° NNW 20:20:50 18° NNE 20:22:27 12° ENE
COSMOS 2487 3.1 20:17:25 10° NNW 20:20:57 57° WSW 20:24:26 10° S
Cosmos 2100 Rocket 4.1 20:16:01 10° S 20:22:13 60° E 20:28:28 10° NNE
Cosmos 2151 4.4 20:20:08 10° NNE 20:23:14 19° ENE 20:24:19 18° E
Cosmos 1470 2.7 20:23:21 10° S 20:27:18 74° E 20:31:17 10° NNE
SAR-Lupe-4 3.8 20:27:03 14° SE 20:29:52 49° ENE 20:33:22 10° N
PSLV R/B 4.0 20:27:19 10° SW 20:30:08 30° SSE 20:30:57 26° SE
Cosmos 1408 Rocket 3.7 20:28:36 10° N 20:33:05 78° W 20:37:32 10° S
H-2A R/B 3.5 20:31:54 10° S 20:35:44 56° W 20:39:37 10° NNW
TIMED 4.4 20:32:21 10° SSW 20:36:42 75° ESE 20:41:04 10° NNE
YAOGAN 6 4.4 20:37:47 17° ENE 20:37:47 17° ENE 20:39:55 10° NNE
Cosmos 494 Rocket 4.2 20:32:51 10° N 20:37:49 49° ENE 20:40:57 21° SE
Spot 2 Rocket 3.8 20:34:06 10° S 20:39:10 69° WSW 20:44:18 10° NNW
OAO 2 Rocket 4.2 20:35:05 10° SW 20:39:43 34° SSE 20:41:53 24° ESE
Cosmos 2082 Rocket 3.1 20:35:00 10° NW 20:40:28 50° WSW 20:45:53 10° S
Resurs 1-3 4.0 20:37:24 10° S 20:41:44 65° W 20:46:07 10° NNW
GPS 2-05 Rocket1 3.9 20:40:31 10° WSW 20:43:44 33° S 20:44:43 28° SSE
Cosmos 1184 Rocket 2.8 20:44:11 10° N 20:47:32 62° E 20:48:38 37° SE
SAR-Lupe-1 3.9 20:46:27 24° SSE 20:48:28 75° ENE 20:52:04 10° N
Cosmos 1802 Rocket 3.9 20:42:23 10° S 20:48:30 76° E 20:54:41 10° N
Cosmos 1340 Rocket 3.0 20:45:13 10° NNW 20:49:13 72° W 20:53:08 10° S
Helios 1A 2.9 20:45:49 15° SSE 20:49:16 84° ENE 20:53:29 10° NNW
Cosmos 1842 Rocket 3.5 20:45:24 10° S 20:49:44 59° E 20:54:03 10° NNE
CZ-4B DEB 2.6 20:49:48 51° ESE 20:50:16 59° ENE 20:53:19 10° N
Cosmos 389 Rocket 2.6 20:52:52 47° ESE 20:53:03 47° E 20:56:27 10° NNE
SeaSat 1 3.3 20:51:04 10° S 20:55:47 47° WSW 21:00:34 10° NW
Meteor 1-16 Rocket 4.2 20:50:12 10° S 20:56:01 67° E 21:01:55 10° NNE
Envisat 2.9 20:54:15 22° SSE 20:57:29 68° ENE 21:02:31 10° N
Cosmos 1356 Rocket 3.2 20:55:24 10° N 20:59:29 68° E 21:00:45 41° SSE
Cosmos 1271 Rocket 4.2 20:56:51 10° SSW 21:00:38 40° WNW 21:04:27 10° N
Cosmos 1459 Rocket 4.2 20:56:05 10° SSW 21:02:18 72° W 21:08:27 10° N
ISS -1.6 21:01:15 10° WNW 21:03:57 23° NNW 21:06:03 13° NNE
ERS-1 Rocket 3.4 21:03:09 37° E 21:04:11 41° ENE 21:08:54 10° N
Meteor 1-11 4.2 20:59:00 10° N 21:04:33 64° ENE 21:07:16 30° SSE
Meteor 2-17 Rocket 4.4 20:59:12 10° S 21:05:20 86° E 21:11:31 10° N
SL-14 R/B 3.1 21:02:56 10° N 21:06:50 81° E 21:07:46 50° SSE
Cosmos 2061 Rocket 4.3 21:03:08 10° SSW 21:09:30 70° W 21:15:57 10° N
Geosat 4.0 21:04:35 10° NNE 21:09:39 82° WNW 21:14:39 10° SSW
Cosmos 2233 Rocket 4.3 21:12:07 38° ESE 21:13:07 41° E 21:18:48 10° NNE
Cosmos 1626 3.9 21:13:52 10° NNE 21:15:35 22° NNE 21:15:35 22° NNE
Cosmos 1328 4.2 21:14:33 10° NNW 21:18:28 62° W 21:19:50 36° SSW
Cosmos 1864 Rocket 4.4 21:13:36 10° S 21:19:55 76° E 21:26:13 10° N
H-2A R/B 3.7 21:28:33 21° NE 21:28:33 21° NE 21:31:26 10° NNE
Cosmos 2369 Rocket 2.0 21:23:04 10° SSW 21:28:41 77° ESE 21:34:19 10° NNE
Meteor 2-1 Rocket 4.1 21:27:08 30° S 21:30:06 77° E 21:35:45 10° NNE
Cosmos 2221 3.3 21:33:23 42° NNE 21:33:23 42° NNE 21:36:24 10° NNE
Cosmos 2058 2.9 21:29:23 10° N 21:33:13 75° NNW 21:33:13 75° NNW
Lacrosse 5 4.5 21:32:55 10° NW 21:35:19 13° N 21:37:44 10° NNE
Cosmos 1703 4.4 21:32:23 10° N 21:34:51 36° N 21:34:51 36° N
Terra 4.2 21:39:38 11° NE 21:39:38 11° NE 21:40:04 10° NNE
SPOT 5 3.5 21:40:47 48° NE 21:40:47 48° NE 21:45:20 10° N
Cosmos 1939 Rocket 3.9 21:40:21 40° SW 21:41:06 45° W 21:45:06 10° NNW
Cosmos 1943 Rocket 3.8 21:48:53 21° NE 21:48:53 21° NE 21:50:46 10° NNE
Lacrosse 5 rocket 3.8 21:44:05 10° W 21:45:44 12° WSW 21:46:14 12° SW
CZ-3B DEB 4.2 21:43:06 10° WNW 21:47:19 17° NNW 21:50:07 10° NNE
NOAA 11 4.1 21:49:56 70° NE 21:49:56 70° NE 21:55:12 10° N
Cosmos 2263 4.1 21:52:40 77° NE 21:52:40 77° NE 21:57:57 10° NNE
USA 215 3.1 21:45:54 10° NE 21:52:26 72° SE 21:58:56 10° SW
Cosmos 2151 4.5 21:56:50 10° NNW 22:00:35 31° W 22:00:57 31° W
CZ-4C R/B 2.5 21:57:46 10° SW 22:02:58 63° NW 22:08:54 10° NNE
MetOp-A 4.3 22:07:06 71° NW 22:07:06 71° NW 22:12:01 10° NNW
Cosmos 2346 Rocket 4.4 22:02:29 10° N 22:08:44 81° W 22:09:02 78° SW
SPOT 1/Viking Rocket 4.5 22:13:13 41° N 22:13:13 41° N 22:16:41 10° N
ARGOS 3.6 22:17:29 55° NNW 22:17:29 55° NNW 22:21:38 10° NNW
USA 267 4.0 22:24:10 41° NE 22:24:35 41° NNE 22:30:36 10° NW
H-2A R/B 3.9 23:09:10 27° NW 23:09:10 27° NW 23:11:41 10° NNW
Terra 4.4 23:18:31 17° NNW 23:18:31 17° NNW 23:19:33 10° NNW
ATLAS 3B R/B 4.1 23:20:37 31° NNE 23:20:37 31° NNE 23:24:07 10° NNE
Cosmos 1943 Rocket 4.3 23:30:17 23° NW 23:30:17 23° NW 23:33:51 10° N
Cosmos 2227 Rocket 4.4 23:25:25 10° N 23:27:14 19° N 23:27:14 19° N
USA 215 4.4 23:29:10 10° NE 23:36:13 37° NW 23:41:06 10° W
